period_start,C,m1,H,J0,J1,J2,J3,J4,J5,JA,JB,JC,JD,JJ,JK,JN,#
2013-08-08 00:00:44,0.00,2.28,0.00,27.92,30.90,32.74,5.87,32.54,1018.92,2035.00,2548.00,2732.00,2908.00,349.29,318.73,32.53,0000 0000 0000 0000 000000
2013-08-08 00:01:44,0.00,2.28,0.00,27.97,30.90,32.78,5.83,32.25,1018.92,2035.00,2548.00,2732.00,2908.02,349.73,318.92,32.53,0000 0000 0000 0000 000000
2013-08-08 00:02:44,0.00,2.28,0.00,27.99,30.90,32.79,5.84,32.17,1018.99,2035.00,2548.00,2732.00,2908.00,350.55,319.85,32.54,0000 0000 0000 0000 000000
2013-08-08 00:03:44,0.00,2.28,0.00,28.02,30.90,32.80,5.93,32.29,1018.99,2035.00,2548.01,2732.00,2908.00,350.04,319.38,32.54,0000 0000 0000 0000 000000
2013-08-08 00:04:44,0.00,2.28,0.00,28.00,30.90,32.77,5.82,32.42,1019.04,2035.00,2548.01,2731.99,2908.00,350.32,319.63,32.55,0000 0000 0000 0000 000000
2013-08-08 00:05:44,0.00,2.28,0.00,27.99,30.90,32.78,5.89,32.25,1019.01,2035.00,2548.00,2731.99,2908.00,350.44,319.57,32.56,0000 0000 0000 0000 000000
2013-08-08 00:06:45,0.00,2.28,0.00,27.97,30.90,32.83,5.77,32.29,1018.98,2035.00,2548.00,2731.98,2908.00,349.63,319.17,32.56,0000 0000 0000 0000 000000
2013-08-08 00:07:45,0.00,2.28,0.00,27.99,30.90,32.79,5.91,32.42,1019.01,2035.00,2548.00,2731.98,2908.00,349.74,318.99,32.57,0000 0000 0000 0000 000000
2013-08-08 00:08:45,0.00,2.28,0.00,27.99,30.90,32.81,5.90,32.50,1019.00,2035.00,2548.00,2731.99,2908.00,350.32,320.14,32.57,0000 0000 0000 0000 000000
2013-08-08 00:09:45,0.00,2.28,0.00,28.00,30.90,32.83,5.77,32.25,1019.00,2035.00,2548.00,2731.99,2908.00,349.32,318.34,32.58,0000 0000 0000 0000 000000
2013-08-08 00:10:45,0.00,2.28,0.00,27.95,30.90,32.84,5.77,32.54,1019.00,2035.00,2548.00,2731.99,2908.00,348.77,318.26,32.58,0000 0000 0000 0000 000000
2013-08-08 00:11:46,0.00,2.28,0.00,27.94,30.90,32.82,5.93,32.25,1018.99,2035.00,2548.00,2731.99,2908.00,351.01,320.31,32.59,0000 0000 0000 0000 000000
2013-08-08 00:12:46,0.00,2.28,0.00,27.95,30.92,32.84,5.89,32.33,1018.98,2035.00,2548.00,2731.99,2908.00,349.67,319.13,32.60,0000 0000 0000 0000 000000
2013-08-08 00:13:46,0.00,2.28,0.00,27.96,30.92,32.86,5.95,32.38,1018.91,2035.00,2548.00,2731.99,2908.00,349.71,319.09,32.60,0000 0000 0000 0000 000000
2013-08-08 00:14:47,0.00,2.28,0.00,28.01,30.92,32.86,5.88,32.38,1018.95,2035.00,2548.00,2731.98,2908.00,349.57,319.26,32.61,0000 0000 0000 0000 000000
2013-08-08 00:15:47,0.00,2.28,0.00,28.03,30.92,32.82,5.90,32.29,1018.93,2035.00,2548.00,2731.96,2907.99,350.08,319.37,32.61,0000 0000 0000 0000 000000
2013-08-08 00:16:47,0.00,2.28,0.00,28.02,30.92,32.85,5.96,32.33,1018.90,2035.00,2548.00,2731.96,2907.99,350.12,319.07,32.62,0000 0000 0000 0000 000000
2013-08-08 00:17:47,0.00,2.28,0.00,28.03,30.92,32.85,5.78,32.54,1018.91,2035.00,2548.00,2731.96,2907.99,348.77,318.20,32.63,0000 0000 0000 0000 000000
2013-08-08 00:18:48,0.00,2.28,0.00,28.03,30.92,32.86,5.85,32.33,1018.90,2034.99,2548.00,2731.95,2907.99,349.93,319.38,32.63,0000 0000 0000 0000 000000
2013-08-08 00:19:48,0.00,2.28,0.00,28.04,30.92,32.85,6.06,32.25,1018.87,2034.99,2548.00,2731.97,2907.99,351.24,320.50,32.64,0000 0000 0000 0000 000000
2013-08-08 00:20:48,0.00,2.28,0.00,28.00,30.92,32.84,5.88,32.25,1018.87,2034.99,2548.00,2731.98,2907.99,350.08,319.37,32.64,0000 0000 0000 0000 000000
2013-08-08 00:21:48,0.00,2.28,0.00,27.97,30.92,32.87,5.85,32.38,1018.86,2034.98,2548.00,2731.97,2907.99,349.89,318.98,32.65,0000 0000 0000 0000 000000
2013-08-08 00:22:48,0.00,2.28,0.00,28.00,30.93,32.88,5.84,32.46,1018.91,2034.99,2548.00,2731.94,2907.98,350.05,319.48,32.66,0000 0000 0000 0000 000000
2013-08-08 00:23:49,0.02,2.28,0.00,27.99,30.93,32.88,5.85,32.46,1018.86,2034.98,2548.00,2731.87,2907.96,350.19,319.32,32.66,0000 0000 0000 0000 000000
2013-08-08 00:24:49,0.02,2.28,0.00,28.04,30.94,32.87,5.86,32.25,1018.82,2034.94,2547.99,2731.84,2907.97,350.27,319.49,32.67,0000 0000 0000 0000 000000
2013-08-08 00:25:49,-0.03,2.28,0.00,28.03,30.95,32.88,5.81,32.21,1018.76,2034.97,2547.99,2731.78,2907.97,349.70,318.94,32.67,0000 0000 0000 0000 000000
2013-08-08 00:26:49,0.04,2.28,0.00,28.02,30.95,32.89,5.84,32.42,1018.75,2034.96,2547.98,2731.83,2907.97,348.92,317.96,32.68,0000 0000 0000 0000 000000
2013-08-08 00:27:50,-0.03,2.28,0.00,28.00,30.95,32.90,5.90,32.33,1018.75,2034.96,2547.97,2731.73,2907.96,350.14,319.40,32.68,0000 0000 0000 0000 000000
2013-08-08 00:28:50,0.05,2.28,0.00,28.02,30.95,32.87,5.84,32.21,1018.70,2034.98,2547.98,2731.63,2907.96,350.14,319.67,32.69,0000 0000 0000 0000 000000
2013-08-08 00:29:50,0.03,2.28,0.00,28.04,30.95,32.89,5.83,32.54,1018.68,2034.98,2547.97,2731.49,2907.94,350.13,319.12,32.70,0000 0000 0000 0000 000000
2013-08-08 00:30:50,0.05,2.28,0.00,28.06,30.95,32.88,5.87,32.50,1018.63,2034.97,2547.94,2731.37,2907.88,349.29,318.66,32.70,0000 0000 0000 0000 000000
2013-08-08 00:31:50,0.04,2.28,0.00,28.07,30.95,32.88,5.89,32.38,1018.64,2034.97,2547.95,2731.38,2907.83,350.67,319.99,32.71,0000 0000 0000 0000 000000
2013-08-08 00:32:50,-0.01,2.28,0.00,28.08,30.95,32.87,5.99,32.50,1018.60,2034.96,2547.95,2731.40,2907.85,349.98,319.12,32.71,0000 0000 0000 0000 000000
2013-08-08 00:33:51,0.00,2.28,0.00,28.08,30.95,32.89,5.83,32.50,1018.61,2034.91,2547.89,2731.26,2907.68,349.48,318.65,32.72,0000 0000 0000 0000 000000
2013-08-08 00:34:51,0.04,2.28,0.00,28.06,30.96,32.91,5.88,32.29,1018.59,2034.94,2547.90,2731.31,2907.72,350.29,319.41,32.73,0000 0000 0000 0000 000000
2013-08-08 00:35:51,-0.02,2.28,0.00,28.13,30.97,32.89,5.94,32.42,1018.68,2034.93,2547.88,2731.31,2907.66,351.20,320.19,32.73,0000 0000 0000 0000 000000
2013-08-08 00:36:51,0.00,2.28,0.00,28.16,30.97,32.92,5.89,32.33,1018.69,2034.92,2547.71,2731.19,2907.57,349.83,318.91,32.74,0000 0000 0000 0000 000000
2013-08-08 00:37:51,0.09,2.28,0.00,28.16,30.97,32.93,5.93,32.13,1018.74,2034.90,2547.76,2731.17,2907.49,351.49,320.44,32.74,0000 0000 0000 0000 000000
2013-08-08 00:38:52,-0.03,2.28,0.00,28.15,30.97,32.94,5.90,32.54,1018.79,2034.89,2547.84,2731.10,2907.36,349.44,318.36,32.75,0000 0000 0000 0000 000000
2013-08-08 00:39:52,0.04,2.28,0.00,28.17,30.97,32.96,5.90,32.46,1018.76,2034.82,2547.88,2731.06,2907.23,350.10,319.41,32.75,0000 0000 0000 0000 000000
2013-08-08 00:40:52,-0.07,2.28,0.00,28.25,30.97,32.93,5.84,32.38,1018.80,2034.84,2547.88,2731.05,2907.18,350.11,318.95,32.76,0000 0000 0000 0000 000000
2013-08-08 00:41:52,0.05,2.28,0.00,28.23,30.97,32.91,5.86,32.67,1018.78,2034.82,2547.79,2731.06,2907.15,350.12,319.58,32.77,0000 0000 0000 0000 000000
2013-08-08 00:42:53,0.00,2.28,0.00,28.19,30.97,32.94,6.00,32.67,1018.74,2034.68,2547.50,2731.02,2907.09,350.65,319.64,32.77,0000 0000 0000 0000 000000
2013-08-08 00:43:53,-0.08,2.28,0.00,28.19,30.98,32.96,5.89,32.50,1018.79,2034.56,2547.40,2731.01,2907.05,350.00,318.93,32.78,0000 0000 0000 0000 000000
2013-08-08 00:44:53,-0.04,2.28,0.00,28.19,30.99,32.94,5.76,32.58,1018.78,2034.43,2547.26,2731.02,2907.03,348.65,317.84,32.78,0000 0000 0000 0000 000000
2013-08-08 00:45:53,-0.09,2.28,0.00,28.20,31.00,32.97,5.92,32.50,1018.75,2034.48,2547.35,2731.02,2907.03,350.57,319.23,32.79,0000 0000 0000 0000 000000
2013-08-08 00:46:53,0.03,2.28,0.00,28.25,31.00,32.97,5.85,32.42,1018.77,2034.62,2547.26,2731.00,2907.05,348.54,317.67,32.80,0000 0000 0000 0000 000000
2013-08-08 00:47:54,0.12,2.28,0.00,28.28,31.00,32.98,5.90,32.58,1018.76,2034.68,2547.26,2731.01,2907.04,349.10,318.14,32.80,0000 0000 0000 0000 000000
2013-08-08 00:48:54,0.07,2.28,0.00,28.23,31.00,33.00,5.86,32.50,1018.73,2034.62,2547.43,2731.03,2907.05,349.79,318.64,32.81,0000 0000 0000 0000 000000
2013-08-08 00:49:54,-0.13,2.28,0.00,28.23,31.00,32.98,5.98,32.46,1018.76,2034.59,2547.38,2731.01,2907.04,349.79,319.30,32.81,0000 0000 0000 0000 000000
2013-08-08 00:50:55,0.00,2.28,0.00,28.27,31.00,33.00,5.98,32.38,1018.82,2034.61,2547.21,2731.01,2907.03,350.54,319.35,32.82,0000 0000 0000 0000 000000
2013-08-08 00:51:55,0.04,2.28,0.00,28.27,31.00,33.05,5.92,32.33,1018.86,2034.48,2547.17,2731.01,2907.01,350.14,319.31,32.82,0000 0000 0000 0000 000000
2013-08-08 00:52:55,-0.10,2.28,0.00,28.28,31.01,33.04,5.74,32.29,1018.86,2034.44,2547.20,2731.00,2907.00,349.64,318.66,32.83,0000 0000 0000 0000 000000
2013-08-08 00:53:55,-0.01,2.28,0.00,28.31,31.02,33.06,6.00,32.42,1018.84,2034.47,2547.16,2731.00,2907.01,350.57,319.48,32.84,0000 0000 0000 0000 000000
2013-08-08 00:54:55,0.00,2.28,0.00,28.31,31.02,33.06,5.77,32.38,1018.91,2034.49,2547.21,2731.00,2907.00,349.05,318.33,32.84,0000 0000 0000 0000 000000
2013-08-08 00:55:55,0.04,2.28,0.00,28.32,31.02,33.04,5.96,32.17,1018.92,2034.47,2547.14,2731.00,2907.00,350.18,319.13,32.85,0000 0000 0000 0000 000000
2013-08-08 00:56:56,-0.01,2.28,0.00,28.35,31.02,33.04,5.83,32.42,1018.91,2034.43,2547.19,2731.01,2907.00,349.97,318.92,32.85,0000 0000 0000 0000 000000
2013-08-08 00:57:56,-0.04,2.28,0.00,28.36,31.02,33.06,5.88,32.38,1018.88,2034.33,2547.10,2731.00,2907.00,349.51,318.47,32.86,0000 0000 0000 0000 000000
2013-08-08 00:58:56,-0.06,2.28,0.00,28.37,31.03,33.06,5.94,32.17,1018.94,2034.21,2547.07,2731.00,2907.00,350.14,319.05,32.87,0000 0000 0000 0000 000000
2013-08-08 00:59:56,-0.11,2.28,0.00,28.36,31.03,33.05,5.83,32.38,1018.93,2034.12,2547.03,2731.00,2907.00,349.68,318.52,32.87,0000 0000 0000 0000 000000
2013-08-08 01:00:57,-0.06,2.28,0.00,28.33,31.04,33.06,5.83,32.29,1018.99,2034.13,2547.04,2731.00,2907.00,349.72,318.55,32.88,0000 0000 0000 0000 000000
2013-08-08 01:01:57,0.01,2.28,0.00,28.41,31.05,33.05,5.80,32.46,1018.94,2034.10,2547.03,2731.00,2907.00,349.11,318.07,32.88,0000 0000 0000 0000 000000
2013-08-08 01:02:58,-0.02,2.28,0.00,28.45,31.05,33.08,5.90,32.50,1018.97,2034.08,2547.04,2731.00,2907.00,349.87,318.74,32.89,0000 0000 0000 0000 000000
2013-08-08 01:03:58,-0.01,2.28,0.00,28.43,31.05,33.07,5.87,32.29,1018.97,2034.06,2547.02,2731.00,2907.00,350.03,318.55,32.89,0000 0000 0000 0000 000000
2013-08-08 01:04:58,-0.01,2.28,0.00,28.39,31.05,33.06,5.79,32.46,1018.97,2034.03,2547.02,2730.99,2907.00,348.92,317.93,32.90,0000 0000 0000 0000 000000
2013-08-08 01:05:58,-0.02,2.28,0.00,28.40,31.05,33.09,5.96,32.42,1018.88,2034.02,2547.02,2730.99,2906.98,350.57,319.39,32.91,0000 0000 0000 0000 000000
2013-08-08 01:06:58,0.00,2.28,0.00,28.49,31.06,33.09,5.80,32.42,1018.85,2034.02,2547.01,2730.99,2906.96,348.89,318.04,32.91,0000 0000 0000 0000 000000
2013-08-08 01:07:59,0.02,2.28,0.00,28.45,31.07,33.06,5.78,32.46,1018.87,2034.02,2547.00,2730.99,2906.97,348.68,317.37,32.92,0000 0000 0000 0000 000000
2013-08-08 01:08:59,-0.01,2.28,0.00,28.48,31.07,33.10,5.92,32.33,1018.90,2034.03,2547.00,2730.99,2906.99,350.05,318.97,32.92,0000 0000 0000 0000 000000
2013-08-08 01:09:59,0.02,2.28,0.00,28.51,31.07,33.09,5.83,32.33,1018.88,2034.01,2547.00,2730.96,2906.97,350.99,319.66,32.93,0000 0000 0000 0000 000000
2013-08-08 01:10:59,0.00,2.28,0.00,28.53,31.07,33.12,5.77,32.38,1018.93,2034.01,2547.00,2730.93,2906.95,349.06,317.71,32.94,0000 0000 0000 0000 000000
2013-08-08 01:11:59,0.00,2.28,0.00,28.46,31.07,33.14,5.84,32.42,1018.94,2034.00,2547.00,2730.88,2906.90,350.18,318.48,32.94,0000 0000 0000 0000 000000
2013-08-08 01:13:00,0.01,2.28,0.00,28.49,31.07,33.15,5.91,32.46,1018.95,2034.00,2546.99,2730.84,2906.86,350.35,319.21,32.95,0000 0000 0000 0000 000000
2013-08-08 01:14:00,0.02,2.28,0.00,28.49,31.09,33.16,5.86,32.54,1019.00,2034.00,2546.99,2730.78,2906.71,349.27,318.22,32.95,0000 0000 0000 0000 000000
2013-08-08 01:15:00,0.05,2.28,0.00,28.49,31.09,33.17,5.81,32.50,1018.98,2034.00,2546.98,2730.71,2906.55,350.03,318.94,32.96,0000 0000 0000 0000 000000
2013-08-08 01:16:00,0.05,2.28,0.00,28.46,31.10,33.17,5.92,32.42,1018.96,2034.00,2546.96,2730.51,2906.39,350.85,319.61,32.97,0000 0000 0000 0000 000000
2013-08-08 01:17:00,0.08,2.28,0.00,28.50,31.10,33.17,5.85,32.29,1019.01,2034.00,2546.96,2730.29,2906.38,350.16,318.95,32.97,0000 0000 0000 0000 000000
2013-08-08 01:18:01,0.06,2.28,0.00,28.49,31.10,33.16,5.98,32.42,1019.00,2034.00,2546.95,2730.13,2906.20,350.82,319.56,32.98,0000 0000 0000 0000 000000
2013-08-08 01:19:01,0.07,2.28,0.00,28.49,31.10,33.13,5.93,32.46,1019.02,2034.00,2546.91,2730.07,2906.13,350.41,319.19,32.98,0000 0000 0000 0000 000000
2013-08-08 01:20:01,0.02,2.28,0.00,28.48,31.11,33.15,5.90,32.46,1019.05,2034.00,2546.82,2730.05,2906.09,349.66,318.53,32.99,0000 0000 0000 0000 000000
2013-08-08 01:21:01,0.02,2.28,0.00,28.47,31.12,33.17,5.93,32.29,1019.06,2034.00,2546.78,2730.04,2906.05,350.39,319.21,32.99,0000 0000 0000 0000 000000
2013-08-08 01:22:02,0.01,2.28,0.00,28.52,31.12,33.22,5.89,32.42,1019.06,2034.00,2546.75,2730.06,2906.03,350.04,318.84,33.00,0000 0000 0000 0000 000000
2013-08-08 01:23:02,0.00,2.28,0.00,28.53,31.12,33.21,5.81,32.42,1019.06,2034.00,2546.72,2730.03,2906.01,350.11,319.14,33.01,0000 0000 0000 0000 000000
2013-08-08 01:24:02,0.02,2.28,0.00,28.51,31.12,33.21,5.80,32.58,1019.06,2034.00,2546.78,2730.03,2906.04,348.46,317.76,33.01,0000 0000 0000 0000 000000
2013-08-08 01:25:02,-0.01,2.28,0.00,28.47,31.12,33.24,5.97,32.50,1019.05,2034.00,2546.73,2730.04,2906.01,350.82,319.56,33.02,0000 0000 0000 0000 000000
2013-08-08 01:26:02,0.00,2.28,0.00,28.52,31.14,33.22,5.92,32.38,1019.06,2034.00,2546.69,2730.03,2906.00,349.41,318.27,33.02,0000 0000 0000 0000 000000
2013-08-08 01:27:02,0.01,2.28,0.00,28.58,31.15,33.23,5.82,32.63,1019.06,2034.00,2546.72,2730.03,2906.02,349.60,318.38,33.03,0000 0000 0000 0000 000000
2013-08-08 01:28:03,0.00,2.28,0.00,28.55,31.15,33.23,5.93,32.50,1019.06,2034.00,2546.67,2730.02,2906.00,349.66,318.68,33.04,0000 0000 0000 0000 000000
2013-08-08 01:29:03,0.01,2.28,0.00,28.55,31.15,33.25,5.92,32.38,1019.06,2033.99,2546.51,2730.02,2906.01,350.49,319.25,33.04,0000 0000 0000 0000 000000
2013-08-08 01:30:03,0.02,2.28,0.00,28.54,31.15,33.24,5.86,32.33,1019.06,2033.99,2546.53,2730.01,2906.04,350.18,319.06,33.05,0000 0000 0000 0000 000000
2013-08-08 01:31:04,0.00,2.28,0.00,28.55,31.15,33.26,5.94,32.42,1019.06,2033.98,2546.34,2730.01,2906.02,349.78,318.58,33.05,0000 0000 0000 0000 000000
2013-08-08 01:32:04,0.02,2.28,0.00,28.58,31.17,33.26,5.97,32.25,1019.06,2033.97,2546.14,2730.00,2906.00,350.39,319.09,33.06,0000 0000 0000 0000 000000
2013-08-08 01:33:04,0.02,2.28,0.00,28.60,31.17,33.28,5.77,32.17,1019.06,2033.98,2546.08,2730.00,2906.00,349.17,318.44,33.06,0000 0000 0000 0000 000000
2013-08-08 01:34:04,0.02,2.28,0.00,28.65,31.17,33.28,5.87,32.29,1019.06,2033.98,2546.07,2730.00,2906.00,351.26,319.82,33.07,0000 0000 0000 0000 000000
2013-08-08 01:35:04,0.00,2.28,0.00,28.64,31.17,33.30,5.82,32.38,1019.06,2033.98,2546.08,2730.00,2906.00,350.22,318.89,33.08,0000 0000 0000 0000 000000
2013-08-08 01:36:05,0.01,2.28,0.00,28.67,31.17,33.36,5.91,32.21,1019.06,2033.97,2546.09,2730.00,2906.00,350.90,319.86,33.08,0000 0000 0000 0000 000000
2013-08-08 01:37:05,-0.02,2.28,0.00,28.69,31.18,33.32,5.75,32.38,1019.06,2033.96,2546.05,2730.00,2906.00,349.69,318.19,33.09,0000 0000 0000 0000 000000
2013-08-08 01:38:05,0.00,2.28,0.00,28.72,31.20,33.33,5.90,32.46,1019.06,2033.98,2546.02,2730.00,2906.00,348.97,317.95,33.09,0000 0000 0000 0000 000000
2013-08-08 01:39:05,0.01,2.28,0.00,28.74,31.20,33.32,5.91,32.42,1019.06,2033.95,2546.00,2730.00,2906.00,349.97,318.40,33.10,0000 0000 0000 0000 000000
2013-08-08 01:40:05,-0.02,2.28,0.00,28.76,31.20,33.37,5.90,32.42,1019.06,2033.96,2546.00,2730.00,2906.00,349.77,318.34,33.11,0000 0000 0000 0000 000000
2013-08-08 01:41:06,0.02,2.28,0.00,28.76,31.20,33.36,5.87,32.58,1019.06,2033.95,2546.00,2730.00,2905.99,349.84,318.41,33.11,0000 0000 0000 0000 000000
2013-08-08 01:42:06,-0.01,2.28,0.00,28.73,31.20,33.31,5.88,32.63,1019.06,2033.93,2546.00,2730.00,2905.99,349.72,318.32,33.12,0000 0000 0000 0000 000000
2013-08-08 01:43:06,-0.01,2.28,0.00,28.78,31.22,33.36,5.87,32.67,1019.06,2033.94,2546.00,2729.98,2905.97,349.70,318.26,33.12,0000 0000 0000 0000 000000
2013-08-08 01:44:06,0.00,2.28,0.00,28.78,31.22,33.37,5.87,32.67,1019.06,2033.89,2546.00,2729.98,2905.95,350.41,318.90,33.13,0000 0000 0000 0000 000000
2013-08-08 01:45:07,-0.05,2.28,0.00,28.79,31.22,33.37,5.77,32.58,1019.06,2033.81,2546.00,2729.96,2905.93,349.30,318.07,33.13,0000 0000 0000 0000 000000
2013-08-08 01:46:07,-0.04,2.28,0.00,28.79,31.22,33.36,5.82,32.29,1019.06,2033.74,2546.00,2729.95,2905.90,350.89,319.15,33.14,0000 0000 0000 0000 000000
2013-08-08 01:47:07,-0.05,2.28,0.00,28.77,31.23,33.36,6.00,32.13,1019.06,2033.73,2546.00,2729.97,2905.88,350.93,318.81,33.15,0000 0000 0000 0000 000000
2013-08-08 01:48:08,0.00,2.28,0.00,28.77,31.24,33.38,5.81,32.25,1019.06,2033.72,2546.00,2729.94,2905.84,349.59,318.16,33.15,0000 0000 0000 0000 000000
2013-08-08 01:49:08,0.02,2.28,0.00,28.79,31.25,33.38,5.87,32.33,1019.06,2033.66,2545.99,2729.89,2905.66,350.43,319.25,33.16,0000 0000 0000 0000 000000
2013-08-08 01:50:08,0.01,2.28,0.00,28.83,31.25,33.38,5.87,32.46,1019.06,2033.59,2545.99,2729.83,2905.54,350.15,318.54,33.16,0000 0000 0000 0000 000000
2013-08-08 01:51:09,-0.06,2.28,0.00,28.83,31.25,33.40,5.86,32.25,1019.06,2033.49,2545.99,2729.84,2905.46,350.76,318.92,33.17,0000 0000 0000 0000 000000
2013-08-08 01:52:09,-0.04,2.28,0.00,28.85,31.25,33.39,5.72,32.25,1019.06,2033.40,2545.99,2729.70,2905.28,349.22,317.36,33.18,0000 0000 0000 0000 000000
2013-08-08 01:53:09,-0.03,2.28,0.00,28.85,31.26,33.39,6.04,32.42,1019.06,2033.27,2545.99,2729.60,2905.14,350.23,318.63,33.18,0000 0000 0000 0000 000000
2013-08-08 01:54:10,-0.05,2.28,0.00,28.80,31.27,33.40,5.84,32.46,1019.06,2033.21,2545.99,2729.47,2905.08,349.53,318.04,33.19,0000 0000 0000 0000 000000
2013-08-08 01:55:10,-0.01,2.28,0.00,28.79,31.27,33.41,5.73,32.46,1019.06,2033.14,2545.97,2729.36,2905.08,349.03,317.85,33.19,0000 0000 0000 0000 000000
2013-08-08 01:56:10,-0.02,2.28,0.00,28.79,31.27,33.40,5.87,32.42,1019.06,2033.14,2545.96,2729.30,2905.09,349.78,318.02,33.20,0000 0000 0000 0000 000000
2013-08-08 01:57:10,0.03,2.28,0.00,28.80,31.27,33.43,5.88,32.42,1019.06,2033.18,2545.96,2729.27,2905.04,350.57,319.02,33.21,0000 0000 0000 0000 000000
2013-08-08 01:58:11,0.04,2.28,0.00,28.78,31.29,33.46,5.81,32.38,1019.06,2033.13,2545.97,2729.21,2905.02,349.83,318.38,33.21,0000 0000 0000 0000 000000
2013-08-08 01:59:11,-0.02,2.28,0.00,28.79,31.30,33.45,6.05,32.33,1019.06,2033.05,2545.93,2729.12,2905.00,351.37,319.83,33.22,0000 0000 0000 0000 000000
2013-08-08 02:00:11,-0.02,2.28,0.00,28.83,31.30,33.45,5.85,32.42,1019.06,2033.05,2545.88,2729.10,2905.00,350.02,318.33,33.22,0000 0000 0000 0000 000000
2013-08-08 02:01:12,0.01,2.28,0.00,28.82,31.30,33.48,5.93,32.38,1019.06,2033.05,2545.90,2729.07,2905.00,351.28,319.45,33.23,0000 0000 0000 0000 000000
2013-08-08 02:02:12,0.00,2.28,0.00,28.87,31.30,33.48,5.72,32.21,1019.06,2033.02,2545.84,2729.04,2905.00,349.97,318.30,33.23,0000 0000 0000 0000 000000
2013-08-08 02:03:12,0.00,2.28,0.00,28.88,31.31,33.49,5.98,32.54,1019.06,2033.00,2545.74,2729.03,2905.00,350.00,318.43,33.24,0000 0000 0000 0000 000000
2013-08-08 02:04:13,0.00,2.28,0.00,28.91,31.32,33.47,5.81,32.42,1019.06,2033.00,2545.74,2729.01,2905.00,349.45,317.89,33.25,0000 0000 0000 0000 000000
2013-08-08 02:05:13,0.00,2.28,0.00,28.89,31.32,33.45,5.93,32.54,1019.06,2033.00,2545.69,2729.02,2905.00,349.49,317.58,33.25,0000 0000 0000 0000 000000
2013-08-08 02:06:13,0.00,2.28,0.00,28.90,31.32,33.47,5.84,32.29,1019.06,2033.00,2545.76,2729.03,2905.00,350.21,318.97,33.26,0000 0000 0000 0000 000000
2013-08-08 02:07:13,0.00,2.28,0.00,28.93,31.32,33.47,5.79,32.13,1019.06,2033.01,2545.79,2729.03,2905.00,350.09,318.45,33.26,0000 0000 0000 0000 000000
2013-08-08 02:08:13,0.01,2.28,0.00,29.00,31.34,33.49,6.00,32.33,1019.06,2033.00,2545.68,2729.01,2905.00,350.12,318.59,33.27,0000 0000 0000 0000 000000
2013-08-08 02:09:14,0.02,2.28,0.00,28.97,31.35,33.51,5.82,32.42,1019.06,2033.00,2545.57,2729.00,2905.00,349.88,318.22,33.28,0000 0000 0000 0000 000000
2013-08-08 02:10:14,0.02,2.28,0.00,28.95,31.35,33.51,5.96,32.17,1019.06,2033.00,2545.60,2729.00,2905.00,350.67,318.77,33.28,0000 0000 0000 0000 000000
2013-08-08 02:11:14,-0.00,2.28,0.00,28.93,31.35,33.52,5.93,32.29,1019.06,2033.00,2545.45,2729.00,2905.00,350.06,318.42,33.29,0000 0000 0000 0000 000000
2013-08-08 02:12:15,0.02,2.28,0.00,28.94,31.35,33.52,5.88,32.42,1019.06,2033.00,2545.32,2729.00,2904.98,348.73,317.19,33.29,0000 0000 0000 0000 000000
2013-08-08 02:13:15,0.02,2.28,0.00,28.93,31.36,33.52,5.98,32.38,1019.07,2033.00,2545.34,2729.00,2904.99,351.14,319.04,33.30,0000 0000 0000 0000 000000
2013-08-08 02:14:15,0.00,2.28,0.00,28.95,31.37,33.51,5.89,32.33,1019.06,2033.00,2545.34,2729.00,2904.99,349.24,317.49,33.30,0000 0000 0000 0000 000000
2013-08-08 02:15:15,0.01,2.28,0.00,28.96,31.37,33.51,5.75,32.33,1019.08,2033.00,2545.18,2729.00,2904.98,349.79,318.15,33.31,0000 0000 0000 0000 000000
2013-08-08 02:16:16,0.02,2.28,0.00,28.93,31.37,33.53,5.78,32.29,1019.07,2033.00,2545.10,2729.00,2904.96,350.12,318.48,33.32,0000 0000 0000 0000 000000
2013-08-08 02:17:16,0.01,2.28,0.00,28.95,31.37,33.57,5.82,32.63,1019.06,2033.00,2545.06,2728.99,2904.95,350.57,318.87,33.32,0000 0000 0000 0000 000000
2013-08-08 02:18:16,0.01,2.28,0.00,28.95,31.38,33.56,5.85,32.54,1019.06,2033.00,2545.03,2728.96,2904.88,349.66,318.03,33.33,0000 0000 0000 0000 000000
2013-08-08 02:19:17,0.03,2.28,0.00,28.99,31.39,33.59,5.84,32.33,1019.06,2033.00,2545.01,2728.93,2904.65,349.82,318.15,33.33,0000 0000 0000 0000 000000
2013-08-08 02:20:17,0.04,2.28,0.00,29.00,31.40,33.57,5.77,32.21,1019.06,2033.00,2545.00,2728.95,2904.53,349.57,317.68,33.34,0000 0000 0000 0000 000000
2013-08-08 02:21:17,0.02,2.28,0.00,28.97,31.40,33.57,5.96,32.46,1019.07,2033.00,2545.00,2728.96,2904.42,350.39,318.71,33.35,0000 0000 0000 0000 000000
2013-08-08 02:22:17,0.01,2.28,0.00,28.99,31.40,33.56,5.98,32.46,1019.07,2033.00,2545.00,2728.95,2904.26,350.73,318.96,33.35,0000 0000 0000 0000 000000
2013-08-08 02:23:18,0.01,2.28,0.00,29.01,31.40,33.56,5.85,32.38,1019.07,2032.99,2545.01,2728.93,2904.18,350.34,318.59,33.36,0000 0000 0000 0000 000000
2013-08-08 02:24:18,0.02,2.28,0.00,29.05,31.42,33.59,5.81,32.38,1019.07,2032.98,2545.00,2728.86,2904.15,349.15,317.81,33.36,0000 0000 0000 0000 000000
2013-08-08 02:25:18,0.02,2.28,0.00,29.02,31.42,33.61,5.80,32.42,1019.06,2032.98,2545.00,2728.82,2904.09,349.32,317.66,33.37,0000 0000 0000 0000 000000
2013-08-08 02:26:19,0.01,2.28,0.00,29.01,31.42,33.61,5.92,32.29,1019.08,2032.99,2545.00,2728.81,2904.06,350.76,319.17,33.37,0000 0000 0000 0000 000000
2013-08-08 02:27:19,0.02,2.28,0.00,29.01,31.42,33.61,5.83,32.25,1019.07,2032.98,2545.00,2728.55,2904.03,350.24,318.50,33.38,0000 0000 0000 0000 000000
2013-08-08 02:28:19,0.07,2.28,0.00,28.97,31.43,33.60,5.92,32.08,1019.08,2032.98,2545.00,2728.27,2904.01,350.45,318.90,33.39,0000 0000 0000 0000 000000
2013-08-08 02:29:19,0.07,2.29,0.00,29.00,31.45,33.62,5.88,32.29,1019.07,2032.98,2544.99,2728.15,2904.00,350.27,318.10,33.39,0000 0000 0000 0000 000000
2013-08-08 02:30:20,0.03,2.29,0.00,29.02,31.45,33.62,5.88,32.63,1019.09,2032.96,2544.99,2728.07,2904.00,349.37,317.66,33.40,0000 0000 0000 0000 000000
2013-08-08 02:31:20,-0.01,2.29,0.00,29.00,31.45,33.62,5.83,32.17,1019.08,2032.91,2544.98,2728.04,2904.00,350.97,318.67,33.40,0000 0000 0000 0000 000000
2013-08-08 02:32:20,-0.01,2.29,0.00,29.02,31.45,33.60,6.00,32.38,1019.08,2032.89,2544.61,2727.99,2903.69,350.29,317.87,33.41,0000 0000 0000 0000 000000
2013-08-08 02:33:20,0.11,2.29,0.00,29.04,31.46,33.63,5.86,32.17,1019.09,2032.88,2544.22,2727.92,2903.28,349.56,317.87,33.42,0000 0000 0000 0000 000000
2013-08-08 02:34:21,0.19,2.29,0.00,29.02,31.47,33.66,5.87,32.42,1019.08,2032.85,2544.08,2727.51,2903.09,349.13,317.49,33.42,0000 0000 0000 0000 000000
2013-08-08 02:35:21,0.13,2.29,0.00,29.05,31.47,33.65,5.77,32.33,1019.10,2032.83,2544.03,2727.19,2903.03,349.55,317.84,33.43,0000 0000 0000 0000 000000
2013-08-08 02:36:21,0.04,2.29,0.00,29.08,31.47,33.64,5.87,32.29,1019.08,2032.78,2544.01,2727.08,2903.01,350.16,318.37,33.43,0000 0000 0000 0000 000000